sat.trackr.live / text

‹ back to catalog

UNKNOWN

NORAD 82912

UNKNOWN UNKNOWN UNKNOWN

§ Identity

Operator
Country
Launch date
Launch site
Launch vehicle
Mass (kg)
RCS (m²)

External: N2YO · Heavens-Above

§ Orbital elements

Epoch: 2026-05-23T18:11:17.053728Z

Period
108.37 min
Inclination
65.8316°
Eccentricity
0.0767024
Mean motion
13.28770567 rev/d
Perigee alt
573.9 km
Apogee alt
1,728.9 km
Semi-major
7,529.5 km
B*
4.0544e-4
RAAN
160.5571°
Arg perigee
195.2436°
Mean anomaly
162.4281°
Rev number
60,084

§ Raw data

UNKNOWN1 82912U          26143.75783627  .00000900  00000+0  40544-3 0  99912 82912  65.8316 160.5571 0767024 195.2436 162.4281 13.28770567600842

JSON: /api/v1/satellites/82912 · /tle

For live sub-satellite position, see the globe view (requires WebGL).

§ Visibility from observer

Set your observer location to see the next 7 days of passes ≥ 10°. The values pass through the URL so the page stays shareable.

No JS? Fill the form by hand. The geolocation button needs JavaScript.